Location: Newark
(47.8167°N, 6.1833°E)
Time: 20:29:52
(UTC+00:00)

N. Korean satellite - Pass Details

Date: 30 September 2020
Orbit: 452 x 505 km, 97.2° (Epoch: 28 October)

Event Time Altitude Azimuth Distance (km) Brightness Sun altitude
Rises 04:40:32 0° 20° (NNE) 2,584 10.6 -9.7°
Reaches altitude 10° 04:42:48 10° 31° (NNE) 1,687 9.8 -9.3°
Maximum altitude 04:46:06 33° 96° (E) 839 8.6 -8.8°
Drops below altitude 10° 04:49:20 10° 162° (SSE) 1,645 9.4 -8.2°
Sets 04:51:29 0° 172° (S) 2,507 10.2 -7.9°
